Weather History for Presque Isle, ME

Change the Weather History Date:

Wednesday, December 18, 2013

  Actual Average Record
Temperature  
Mean Temperature 3 °F -  
Max Temperature 15 °F 25 °F 53 °F (2000)
Min Temperature -9 °F 9 °F -21 °F (1932)
Degree Days  
Heating Degree Days 62    
Moisture  
Dew Point -9 °F    
Average Humidity 62    
Maximum Humidity 100    
Minimum Humidity 21    
Precipitation  
Precipitation 0.00 in - - ()
Sea Level Pressure  
Sea Level Pressure 29.91 in    
Wind  
Wind Speed 1 mph (North)    
Max Wind Speed 6 mph    
Max Gust Speed -    
Visibility 8 miles    
Events      
Averages and records for this station are not official NWS values.
T = Trace of Precipitation, MM = Missing Value Source: NWS Daily Summary

Daily Weather History Graph

Daily Weather History Graph

Search for Another Location

Airport:

Trip Planner

Search our weather history database for the weather conditions in past years. The results will help you decide how hot, cold, wet, or windy it might be!

Date:

Astronomy

Dec. 18, 2013 Rise Set
Actual Time 7:12 AM EST 3:45 PM EST
Civil Twilight 6:36 AM EST 4:20 PM EST
Nautical Twilight 5:58 AM EST 4:59 PM EST
Astronomical Twilight 5:21 AM EST 5:36 PM EST
Moon 5:19 PM EST (12/18) 7:44 AM EST (12/18)
Length of Visible Light 9h 43m
Length of Day
8h 33m
Full, 98% of the Moon is Illuminated
Dec 18
Full
Dec 25
Last Quarter
Jan 1
New
Jan 7
First Quarter
Jan 15
Full

Hourly Weather History & Observations

Time (EST) Temp. Windchill Dew Point Humidity Pressure Visibility Wind Dir Wind Speed Gust Speed Precip Events Conditions
12:15 AM 1.4 °F - -27.4 °F 25% 30.12 in 3.0 mi Calm Calm - N/A   Overcast
12:35 AM 1.4 °F - -18.4 °F 39% 30.10 in 3.0 mi Calm Calm - N/A   Overcast
12:55 AM 1.4 °F - -11.2 °F 56% 30.10 in 4.0 mi Calm Calm - N/A   Overcast
1:15 AM 1.4 °F -6.2 °F -5.8 °F 72% 30.09 in 5.0 mi NE 3.5 mph - N/A   Overcast
1:35 AM 1.4 °F -6.2 °F -2.2 °F 85% 30.09 in 2.5 mi NE 3.5 mph - N/A   Overcast
1:55 AM 1.4 °F -6.2 °F - N/A% 30.09 in 5.0 mi North 3.5 mph - N/A   Overcast
2:15 AM 1.4 °F -8.3 °F -31.0 °F 21% 30.08 in 5.0 mi NNE 4.6 mph - N/A   Overcast
2:35 AM 1.4 °F -8.3 °F -22.0 °F 33% 30.07 in 9.0 mi NE 4.6 mph - N/A   Mostly Cloudy
2:55 AM 1.4 °F -6.2 °F -16.6 °F 43% 30.05 in 8.0 mi North 3.5 mph - N/A   Overcast
3:15 AM 1.4 °F - -9.4 °F 61% 30.04 in 10.0 mi Calm Calm - N/A   Overcast
3:35 AM 1.4 °F - -7.6 °F 66% 30.03 in 10.0 mi Calm Calm - N/A   Overcast
3:55 AM 1.4 °F - -23.8 °F 30% 30.03 in 10.0 mi Calm Calm - N/A   Overcast
4:15 AM 1.4 °F - -27.4 °F 25% 30.02 in 10.0 mi Calm Calm - N/A   Overcast
4:35 AM -0.4 °F - -20.2 °F 39% 30.02 in 10.0 mi Calm Calm - N/A   Overcast
4:55 AM -0.4 °F - -14.8 °F 51% 30.01 in 10.0 mi Calm Calm - N/A   Overcast
5:15 AM 1.4 °F - -9.4 °F 61% 30.01 in 10.0 mi Calm Calm - N/A   Overcast
5:35 AM 1.4 °F - -23.8 °F 30% 30.00 in 8.0 mi Calm Calm - N/A   Overcast
5:55 AM 1.4 °F - -27.4 °F 25% 30.00 in 7.0 mi Calm Calm - N/A   Overcast
6:15 AM 1.4 °F - -18.4 °F 39% 30.00 in 9.0 mi Calm Calm - N/A   Overcast
6:35 AM 1.4 °F - -11.2 °F 56% 29.99 in 4.0 mi Calm Calm - N/A   Overcast
6:55 AM 1.4 °F - -5.8 °F 72% 29.99 in 8.0 mi Calm Calm - N/A   Overcast
7:15 AM 3.2 °F - -29.2 °F 21% 30.01 in 4.0 mi Calm Calm - N/A   Overcast
7:35 AM 3.2 °F - -23.8 °F 28% 30.01 in 3.0 mi Calm Calm - N/A   Overcast
7:55 AM 3.2 °F - -13.0 °F 47% 30.00 in 2.5 mi Calm Calm - N/A   Overcast
8:15 AM 3.2 °F - -5.8 °F 66% 29.98 in 2.5 mi Calm Calm - N/A   Overcast
8:35 AM 3.2 °F - -16.6 °F 39% 29.98 in 3.0 mi Calm Calm - N/A   Overcast
8:55 AM 5.0 °F - -20.2 °F 30% 29.97 in 2.5 mi Calm Calm - N/A   Overcast
9:15 AM 5.0 °F - -16.6 °F 36% 29.97 in 5.0 mi Calm Calm - N/A   Overcast
9:35 AM 5.0 °F - -4.0 °F 66% 29.96 in 6.0 mi Calm Calm - N/A   Mostly Cloudy
9:55 AM 5.0 °F -4.1 °F - N/A% 29.94 in 10.0 mi NNW 4.6 mph - N/A   Partly Cloudy
10:15 AM 6.8 °F -0.1 °F -20.2 °F 28% 29.93 in 10.0 mi North 3.5 mph - N/A   Clear
10:35 AM 6.8 °F -2.0 °F -14.8 °F 37% 29.91 in 10.0 mi North 4.6 mph - N/A   Clear
10:55 AM 8.6 °F 0.1 °F -20.2 °F 26% 29.89 in 10.0 mi North 4.6 mph - N/A   Clear
11:15 AM 8.6 °F 2.0 °F 3.2 °F 79% 29.88 in 10.0 mi NNE 3.5 mph - N/A   Clear
11:35 AM 8.6 °F 2.0 °F 3.2 °F 79% 29.87 in 10.0 mi North 3.5 mph - N/A   Clear
11:55 AM 10.4 °F 2.2 °F 3.2 °F 73% 29.86 in 10.0 mi North 4.6 mph - N/A   Clear
12:15 PM 10.4 °F 4.0 °F 3.2 °F 73% 29.84 in 10.0 mi North 3.5 mph - N/A   Clear
12:35 PM 12.2 °F 2.9 °F 3.2 °F 67% 29.84 in 10.0 mi North 5.8 mph - N/A   Clear
12:55 PM 12.2 °F 2.9 °F 5.0 °F 73% 29.83 in 10.0 mi North 5.8 mph - N/A   Clear
1:15 PM - - - N/A% - - North - - N/A   Unknown
1:35 PM 12.2 °F - 6.8 °F 79% 29.81 in 10.0 mi North - - N/A   Clear
1:55 PM 14.0 °F 6.5 °F 6.8 °F 73% 29.81 in 10.0 mi North 4.6 mph - N/A   Clear
2:15 PM 14.0 °F 5.1 °F 6.8 °F 73% 29.81 in 10.0 mi North 5.8 mph - N/A   Clear
2:35 PM 14.0 °F 6.5 °F 6.8 °F 73% 29.81 in 10.0 mi NNW 4.6 mph - N/A   Clear
2:55 PM 15.8 °F 7.2 °F 8.6 °F 73% 29.81 in 10.0 mi NNW 5.8 mph - N/A   Clear
3:15 PM 14.0 °F - 8.6 °F 79% 29.81 in 10.0 mi Calm Calm - N/A   Clear
3:35 PM 14.0 °F 8.2 °F 6.8 °F 73% 29.81 in 10.0 mi North 3.5 mph - N/A   Clear
3:55 PM 10.4 °F - 6.8 °F 85% 29.81 in 10.0 mi Calm Calm - N/A   Clear
4:15 PM 6.8 °F - -0.4 °F 72% 29.80 in 10.0 mi Calm Calm - N/A   Clear
4:35 PM 6.8 °F - 3.2 °F 85% 29.80 in 10.0 mi Calm Calm - N/A   Clear
4:55 PM 5.0 °F - 1.4 °F 85% 29.80 in 10.0 mi Calm Calm - N/A   Clear
5:15 PM 3.2 °F - -0.4 °F 85% 29.80 in 10.0 mi Calm Calm - N/A   Clear
5:35 PM 3.2 °F - 1.4 °F 92% 29.80 in 10.0 mi Calm Calm - N/A   Clear
5:55 PM -0.4 °F - -5.8 °F 78% 29.80 in 10.0 mi Calm Calm - N/A   Clear
6:15 PM -0.4 °F - -11.2 °F 60% 29.80 in 10.0 mi Calm Calm - N/A   Clear
6:35 PM -2.2 °F - -7.6 °F 78% 29.81 in 10.0 mi Calm Calm - N/A   Clear
6:55 PM -4.0 °F - -13.0 °F 65% 29.81 in 10.0 mi Calm Calm - N/A   Clear
7:15 PM -4.0 °F - -5.8 °F 92% 29.80 in 10.0 mi Calm Calm - N/A   Clear
7:35 PM -5.8 °F - -7.6 °F 92% 29.81 in 10.0 mi Calm Calm - N/A   Clear
7:55 PM -5.8 °F - -7.6 °F 92% 29.81 in 10.0 mi Calm Calm - N/A   Clear
8:15 PM -5.8 °F - -18.4 °F 55% 29.81 in 10.0 mi Calm Calm - N/A   Clear
8:35 PM -7.6 °F - -14.8 °F 71% 29.81 in 10.0 mi Calm Calm - N/A   Clear
8:55 PM -9.4 °F - -9.4 °F 100% 29.81 in 10.0 mi Calm Calm - N/A   Clear
9:15 PM -7.6 °F - -16.6 °F 65% 29.80 in 10.0 mi Calm Calm - N/A   Clear
9:35 PM -7.6 °F - -20.2 °F 54% 29.81 in 10.0 mi Calm Calm - N/A   Scattered Clouds
9:55 PM -9.4 °F - -11.2 °F 92% 29.80 in 10.0 mi Calm Calm - N/A   Mostly Cloudy
10:15 PM -7.6 °F - - N/A% 29.79 in 10.0 mi Calm Calm - N/A   Overcast
10:35 PM -5.8 °F - -16.6 °F 60% 29.79 in 10.0 mi Calm Calm - N/A   Overcast
10:55 PM -5.8 °F - -20.2 °F 50% 29.78 in 10.0 mi Calm Calm - N/A   Overcast
11:15 PM -4.0 °F - -9.4 °F 78% 29.78 in 10.0 mi Calm Calm - N/A   Overcast
11:35 PM -2.2 °F - -2.2 °F 100% 29.78 in 10.0 mi Calm Calm - N/A   Overcast
11:55 PM -0.4 °F -8.3 °F -0.4 °F 100% 29.78 in 10.0 mi ENE 3.5 mph - N/A   Overcast